Zurück zum Katalog

COMPASS G2

AktivNavigationMEO
NORAD 34779·PAYLOAD·🇨🇳 China

Gestartet Apr 14, 2009 von Xichang Satellite Launch Center

Loading…

Nächste Überflüge (nächste 24 Stunden)

TLE

AktuellSource: Space-Track

Epoche: Sep 14, 2026, 12:05 UTC

1 34779U 09018A   26257.50380830 -.00000161  00000-0  00000-0 0  9996
2 34779  11.6242  41.5012 0304809 287.3908  79.5447  0.94517318 63005

Verfolge COMPASS G2 in Echtzeit mit AllMySat

Download on the App Store